Time,TemperatureF,DewpointF,PressureIn,WindDirection,WindDirectionDegrees,WindSpeedMPH,WindSpeedGustMPH,Humidity,HourlyPrecipIn,Conditions,Clouds,dailyrainin,SoftwareType,DateUTC
2013-01-28 00:04:00,39.0,38.2,30.12,SSE,168,1.0,1.0,97,0.00,,---,0.00,VWS V14.00,2013-01-28 08:04:00,
2013-01-28 00:09:00,39.0,38.2,30.12,SSW,194,1.0,6.0,97,0.00,,---,0.00,VWS V14.00,2013-01-28 08:09:00,
2013-01-28 00:14:00,39.0,38.2,30.12,South,171,1.0,6.0,97,0.00,,---,0.00,VWS V14.00,2013-01-28 08:14:00,
2013-01-28 00:19:00,38.9,38.1,30.12,South,169,1.0,6.0,97,0.00,,---,0.00,VWS V14.00,2013-01-28 08:19:00,
2013-01-28 00:24:00,38.9,38.1,30.12,SSW,192,3.0,6.0,97,0.00,,---,0.00,VWS V14.00,2013-01-28 08:24:00,
2013-01-28 00:29:00,38.9,38.1,30.13,SSE,163,4.0,6.0,97,0.00,,---,0.00,VWS V14.00,2013-01-28 08:29:00,
2013-01-28 00:34:00,38.9,38.1,30.13,SSE,148,1.0,4.0,97,0.00,,---,0.00,VWS V14.00,2013-01-28 08:34:00,
2013-01-28 00:39:00,38.9,38.1,30.13,SSE,148,0.0,4.0,97,0.00,,---,0.00,VWS V14.00,2013-01-28 08:39:00,
2013-01-28 00:44:00,38.9,38.1,30.13,SSE,148,0.0,4.0,97,0.00,,---,0.00,VWS V14.00,2013-01-28 08:44:00,
2013-01-28 00:49:00,38.9,38.1,30.13,South,179,1.0,4.0,97,0.00,,---,0.00,VWS V14.00,2013-01-28 08:49:00,
2013-01-28 00:54:00,38.9,38.1,30.14,South,180,0.0,4.0,97,0.00,,---,0.00,VWS V14.00,2013-01-28 08:54:00,
2013-01-28 00:59:00,38.9,38.1,30.14,SSE,168,0.0,4.0,97,0.00,,---,0.00,VWS V14.00,2013-01-28 08:59:00,
2013-01-28 01:04:00,38.9,38.1,30.14,SSE,167,0.0,2.0,97,0.00,,---,0.00,VWS V14.00,2013-01-28 09:04:00,
2013-01-28 01:09:00,38.9,38.1,30.14,SSE,160,0.0,2.0,97,0.00,,---,0.00,VWS V14.00,2013-01-28 09:09:00,
2013-01-28 01:14:00,38.9,38.1,30.14,South,172,1.0,2.0,97,0.00,,---,0.00,VWS V14.00,2013-01-28 09:14:00,
2013-01-28 01:19:00,38.8,38.0,30.14,South,181,0.0,3.0,97,0.00,,---,0.00,VWS V14.00,2013-01-28 09:19:00,
2013-01-28 01:24:00,38.8,38.0,30.14,SSW,195,0.0,3.0,97,0.00,,---,0.00,VWS V14.00,2013-01-28 09:24:00,
2013-01-28 01:29:00,38.8,38.0,30.15,South,173,0.0,4.0,97,0.00,,---,0.00,VWS V14.00,2013-01-28 09:29:00,
2013-01-28 01:34:00,38.7,37.9,30.15,SE,132,1.0,2.0,97,0.00,,---,0.00,VWS V14.00,2013-01-28 09:34:00,
2013-01-28 01:39:00,38.7,37.9,30.15,SSE,163,1.0,4.0,97,0.00,,---,0.00,VWS V14.00,2013-01-28 09:39:00,
2013-01-28 01:44:00,38.7,37.9,30.15,South,176,1.0,4.0,97,0.00,,---,0.00,VWS V14.00,2013-01-28 09:44:00,
2013-01-28 01:49:00,38.8,38.0,30.15,South,176,2.0,4.0,97,0.00,,---,0.00,VWS V14.00,2013-01-28 09:49:00,
2013-01-28 01:54:00,38.7,37.9,30.15,SSE,162,0.0,4.0,97,0.00,,---,0.00,VWS V14.00,2013-01-28 09:54:00,
2013-01-28 01:59:00,38.7,37.9,30.15,SSE,162,0.0,4.0,97,0.00,,---,0.00,VWS V14.00,2013-01-28 09:59:00,
2013-01-28 02:04:00,38.7,37.9,30.15,SSE,166,0.0,2.0,97,0.00,,---,0.00,VWS V14.00,2013-01-28 10:04:00,
2013-01-28 02:09:00,38.7,37.9,30.15,SSW,204,1.0,4.0,97,0.00,,---,0.00,VWS V14.00,2013-01-28 10:09:00,
2013-01-28 02:14:00,38.7,37.9,30.15,South,174,1.0,4.0,97,0.00,,---,0.00,VWS V14.00,2013-01-28 10:14:00,
2013-01-28 02:19:00,38.7,37.9,30.15,South,172,0.0,4.0,97,0.00,,---,0.00,VWS V14.00,2013-01-28 10:19:00,
2013-01-28 02:24:00,38.7,37.9,30.16,SSE,165,0.0,4.0,97,0.00,,---,0.00,VWS V14.00,2013-01-28 10:24:00,
2013-01-28 02:29:00,38.7,37.9,30.16,SSE,166,0.0,4.0,97,0.00,,---,0.00,VWS V14.00,2013-01-28 10:29:00,
2013-01-28 02:34:00,38.7,37.9,30.16,SSE,166,0.0,1.0,97,0.00,,---,0.00,VWS V14.00,2013-01-28 10:34:00,
2013-01-28 02:39:00,38.6,37.8,30.16,SSE,165,1.0,1.0,97,0.00,,---,0.00,VWS V14.00,2013-01-28 10:39:00,
2013-01-28 02:45:00,38.6,37.8,30.16,SSE,163,0.0,1.0,97,0.00,,---,0.00,VWS V14.00,2013-01-28 10:45:00,
2013-01-28 02:50:00,38.7,37.9,30.16,SSE,163,1.0,1.0,97,0.00,,---,0.00,VWS V14.00,2013-01-28 10:50:00,
2013-01-28 02:55:00,38.6,37.8,30.16,SSE,159,1.0,1.0,97,0.01,,---,0.01,VWS V14.00,2013-01-28 10:55:00,
2013-01-28 03:00:00,38.6,37.8,30.16,SSE,148,2.0,2.0,97,0.01,,---,0.01,VWS V14.00,2013-01-28 11:00:00,
2013-01-28 03:05:00,38.6,37.8,30.16,South,170,1.0,2.0,97,0.01,,---,0.01,VWS V14.00,2013-01-28 11:05:00,
2013-01-28 03:10:00,38.6,37.8,30.16,SE,146,0.0,2.0,97,0.01,,---,0.01,VWS V14.00,2013-01-28 11:10:00,
2013-01-28 03:15:00,38.6,38.1,30.16,SSE,165,2.0,2.0,98,0.01,,---,0.01,VWS V14.00,2013-01-28 11:15:00,
2013-01-28 03:20:00,38.7,38.2,30.16,South,169,4.0,4.0,98,0.01,,---,0.01,VWS V14.00,2013-01-28 11:20:00,
2013-01-28 03:25:00,38.8,38.3,30.16,South,177,1.0,4.0,98,0.01,,---,0.01,VWS V14.00,2013-01-28 11:25:00,
2013-01-28 03:30:00,38.8,38.3,30.16,SSW,202,0.0,4.0,98,0.01,,---,0.01,VWS V14.00,2013-01-28 11:30:00,
2013-01-28 03:35:00,38.9,38.4,30.16,SSE,149,0.0,4.0,98,0.02,,---,0.02,VWS V14.00,2013-01-28 11:35:00,
2013-01-28 03:40:00,38.9,38.4,30.16,South,169,0.0,4.0,98,0.02,,---,0.02,VWS V14.00,2013-01-28 11:40:00,
2013-01-28 03:45:00,39.0,38.5,30.16,South,179,1.0,4.0,98,0.02,,---,0.02,VWS V14.00,2013-01-28 11:45:00,
2013-01-28 03:50:00,39.0,38.5,30.16,South,174,0.0,4.0,98,0.03,,---,0.03,VWS V14.00,2013-01-28 11:50:00,
2013-01-28 03:55:00,39.0,38.5,30.16,SSW,200,1.0,4.0,98,0.03,,---,0.03,VWS V14.00,2013-01-28 11:55:00,
2013-01-28 04:00:00,39.1,38.6,30.16,SW,215,2.0,4.0,98,0.03,,---,0.03,VWS V14.00,2013-01-28 12:00:00,
2013-01-28 04:05:00,39.1,38.6,30.16,SSW,206,0.0,2.0,98,0.02,,---,0.03,VWS V14.00,2013-01-28 12:05:00,
2013-01-28 04:10:00,39.1,38.6,30.16,South,180,0.0,2.0,98,0.02,,---,0.03,VWS V14.00,2013-01-28 12:10:00,
2013-01-28 04:15:00,39.2,38.7,30.17,SW,220,1.0,3.0,98,0.02,,---,0.03,VWS V14.00,2013-01-28 12:15:00,
2013-01-28 04:20:00,39.2,38.7,30.17,South,171,1.0,4.0,98,0.03,,---,0.04,VWS V14.00,2013-01-28 12:20:00,
2013-01-28 04:25:00,39.3,38.8,30.17,South,171,1.0,4.0,98,0.03,,---,0.04,VWS V14.00,2013-01-28 12:25:00,
2013-01-28 04:30:00,39.3,38.8,30.17,South,171,0.0,4.0,98,0.03,,---,0.04,VWS V14.00,2013-01-28 12:30:00,
2013-01-28 04:35:00,39.3,38.8,30.17,SSW,198,1.0,2.0,98,0.02,,---,0.04,VWS V14.00,2013-01-28 12:35:00,
2013-01-28 04:40:00,39.3,38.8,30.17,SSW,200,1.0,2.0,98,0.03,,---,0.05,VWS V14.00,2013-01-28 12:40:00,
2013-01-28 04:45:00,39.4,38.9,30.17,SE,146,2.0,2.0,98,0.03,,---,0.05,VWS V14.00,2013-01-28 12:45:00,
2013-01-28 04:50:00,39.4,38.9,30.17,South,178,2.0,4.0,98,0.04,,---,0.06,VWS V14.00,2013-01-28 12:50:00,
2013-01-28 04:55:00,39.5,39.0,30.17,SSW,198,0.0,4.0,98,0.04,,---,0.06,VWS V14.00,2013-01-28 12:55:00,
2013-01-28 05:00:00,39.5,39.0,30.17,SSE,168,1.0,4.0,98,0.04,,---,0.06,VWS V14.00,2013-01-28 13:00:00,
2013-01-28 05:05:00,39.5,39.0,30.17,SSW,210,1.0,2.0,98,0.04,,---,0.07,VWS V14.00,2013-01-28 13:05:00,
2013-01-28 05:10:00,39.5,39.0,30.17,SW,215,0.0,2.0,98,0.04,,---,0.07,VWS V14.00,2013-01-28 13:10:00,
2013-01-28 05:15:00,39.5,39.0,30.17,South,190,2.0,2.0,98,0.05,,---,0.08,VWS V14.00,2013-01-28 13:15:00,
2013-01-28 05:20:00,39.5,39.0,30.17,SSE,159,0.0,2.0,98,0.05,,---,0.08,VWS V14.00,2013-01-28 13:20:00,
2013-01-28 05:25:00,39.6,39.1,30.17,South,183,1.0,2.0,98,0.06,,---,0.09,VWS V14.00,2013-01-28 13:25:00,
2013-01-28 05:30:00,39.6,39.1,30.17,SSW,208,0.0,2.0,98,0.07,,---,0.10,VWS V14.00,2013-01-28 13:30:00,
2013-01-28 05:35:00,39.6,39.1,30.17,SSW,209,0.0,1.0,98,0.06,,---,0.10,VWS V14.00,2013-01-28 13:35:00,
2013-01-28 05:40:00,39.6,39.1,30.17,SSW,202,0.0,2.0,98,0.07,,---,0.11,VWS V14.00,2013-01-28 13:40:00,
2013-01-28 05:45:00,39.6,39.1,30.17,South,182,0.0,2.0,98,0.07,,---,0.11,VWS V14.00,2013-01-28 13:45:00,
2013-01-28 05:50:00,39.6,39.1,30.18,South,188,0.0,2.0,98,0.08,,---,0.12,VWS V14.00,2013-01-28 13:50:00,
2013-01-28 05:55:00,39.6,39.1,30.17,South,178,2.0,3.0,98,0.09,,---,0.13,VWS V14.00,2013-01-28 13:55:00,
2013-01-28 06:00:00,39.6,39.1,30.18,SSW,197,1.0,3.0,98,0.09,,---,0.13,VWS V14.00,2013-01-28 14:00:00,
2013-01-28 06:05:00,39.6,39.1,30.18,SSW,197,1.0,2.0,98,0.06,,---,0.13,VWS V14.00,2013-01-28 14:05:00,
2013-01-28 06:10:00,39.6,39.1,30.18,South,182,1.0,2.0,98,0.06,,---,0.13,VWS V14.00,2013-01-28 14:10:00,
2013-01-28 06:15:00,39.7,39.2,30.18,SSW,192,0.0,4.0,98,0.07,,---,0.14,VWS V14.00,2013-01-28 14:15:00,
2013-01-28 06:20:00,39.7,39.2,30.18,SSW,198,1.0,4.0,98,0.07,,---,0.14,VWS V14.00,2013-01-28 14:20:00,
2013-01-28 06:25:00,39.6,39.1,30.18,SW,224,2.0,4.0,98,0.08,,---,0.15,VWS V14.00,2013-01-28 14:25:00,
2013-01-28 06:30:00,39.7,39.2,30.18,South,190,0.0,4.0,98,0.08,,---,0.15,VWS V14.00,2013-01-28 14:30:00,
2013-01-28 06:36:00,39.7,39.2,30.18,SSW,202,1.0,2.0,98,0.05,,---,0.15,VWS V14.00,2013-01-28 14:36:00,
2013-01-28 06:41:00,39.7,39.2,30.18,SSE,167,2.0,5.0,98,0.06,,---,0.16,VWS V14.00,2013-01-28 14:41:00,
2013-01-28 06:46:00,39.7,39.2,30.18,SSW,199,1.0,5.0,98,0.06,,---,0.16,VWS V14.00,2013-01-28 14:46:00,
2013-01-28 06:51:00,39.8,39.3,30.18,South,186,3.0,5.0,98,0.06,,---,0.16,VWS V14.00,2013-01-28 14:51:00,
2013-01-28 06:56:00,39.8,39.3,30.18,South,183,1.0,5.0,98,0.07,,---,0.17,VWS V14.00,2013-01-28 14:56:00,
2013-01-28 07:01:00,39.9,39.4,30.19,SW,226,1.0,5.0,98,0.07,,---,0.17,VWS V14.00,2013-01-28 15:01:00,
2013-01-28 07:06:00,39.9,39.4,30.19,SSW,196,1.0,2.0,98,0.04,,---,0.17,VWS V14.00,2013-01-28 15:06:00,
2013-01-28 07:11:00,39.9,39.4,30.19,SSW,192,2.0,4.0,98,0.05,,---,0.18,VWS V14.00,2013-01-28 15:11:00,
2013-01-28 07:16:00,39.9,39.4,30.19,SSW,202,2.0,4.0,98,0.05,,---,0.18,VWS V14.00,2013-01-28 15:16:00,
2013-01-28 07:21:00,39.9,39.4,30.19,South,169,2.0,4.0,98,0.05,,---,0.18,VWS V14.00,2013-01-28 15:21:00,
2013-01-28 07:26:00,40.0,39.5,30.19,South,185,2.0,4.0,98,0.05,,---,0.18,VWS V14.00,2013-01-28 15:26:00,
2013-01-28 07:31:00,40.0,39.5,30.19,SSW,200,2.0,4.0,98,0.05,,---,0.18,VWS V14.00,2013-01-28 15:31:00,
2013-01-28 07:36:00,40.0,39.5,30.19,South,181,1.0,3.0,98,0.04,,---,0.19,VWS V14.00,2013-01-28 15:36:00,
2013-01-28 07:41:00,40.0,39.5,30.19,South,175,1.0,3.0,98,0.04,,---,0.19,VWS V14.00,2013-01-28 15:41:00,
2013-01-28 07:46:00,40.0,39.5,30.19,South,189,2.0,4.0,98,0.04,,---,0.19,VWS V14.00,2013-01-28 15:46:00,
2013-01-28 07:51:00,40.0,39.5,30.20,SSE,168,0.0,4.0,98,0.05,,---,0.20,VWS V14.00,2013-01-28 15:51:00,
2013-01-28 07:56:00,40.0,39.5,30.20,SSE,163,2.0,6.0,98,0.05,,---,0.20,VWS V14.00,2013-01-28 15:56:00,
2013-01-28 08:01:00,40.0,39.5,30.20,South,183,1.0,6.0,98,0.05,,---,0.20,VWS V14.00,2013-01-28 16:01:00,
2013-01-28 08:06:00,40.0,39.5,30.20,South,175,1.0,5.0,98,0.03,,---,0.20,VWS V14.00,2013-01-28 16:06:00,
2013-01-28 08:11:00,40.1,39.6,30.20,SSW,201,1.0,5.0,98,0.04,,---,0.21,VWS V14.00,2013-01-28 16:11:00,
2013-01-28 08:16:00,40.1,39.6,30.20,SW,221,2.0,5.0,98,0.04,,---,0.21,VWS V14.00,2013-01-28 16:16:00,
2013-01-28 08:21:00,40.1,39.6,30.20,SW,223,0.0,5.0,98,0.04,,---,0.21,VWS V14.00,2013-01-28 16:21:00,
2013-01-28 08:26:00,40.1,39.6,30.21,South,180,1.0,5.0,98,0.04,,---,0.21,VWS V14.00,2013-01-28 16:26:00,
2013-01-28 08:31:00,40.1,39.6,30.21,South,191,1.0,5.0,98,0.05,,---,0.22,VWS V14.00,2013-01-28 16:31:00,
2013-01-28 08:36:00,40.2,39.7,30.21,SSW,199,1.0,2.0,98,0.04,,---,0.22,VWS V14.00,2013-01-28 16:36:00,
2013-01-28 08:41:00,40.2,39.7,30.21,South,173,1.0,2.0,98,0.04,,---,0.22,VWS V14.00,2013-01-28 16:41:00,
2013-01-28 08:46:00,40.2,39.7,30.21,South,179,2.0,4.0,98,0.05,,---,0.23,VWS V14.00,2013-01-28 16:46:00,
2013-01-28 08:51:00,40.2,39.7,30.21,SSW,205,2.0,4.0,98,0.05,,---,0.23,VWS V14.00,2013-01-28 16:51:00,
2013-01-28 08:56:00,40.3,39.8,30.21,SSW,213,1.0,4.0,98,0.05,,---,0.23,VWS V14.00,2013-01-28 16:56:00,
2013-01-28 09:01:00,40.3,39.8,30.21,SSE,159,4.0,5.0,98,0.05,,---,0.23,VWS V14.00,2013-01-28 17:01:00,
2013-01-28 09:06:00,40.4,39.9,30.20,SSW,201,1.0,5.0,98,0.04,,---,0.24,VWS V14.00,2013-01-28 17:06:00,
2013-01-28 09:11:00,40.4,39.9,30.21,South,174,1.0,6.0,98,0.04,,---,0.24,VWS V14.00,2013-01-28 17:11:00,
2013-01-28 09:16:00,40.4,39.9,30.21,SSE,148,0.0,6.0,98,0.04,,---,0.24,VWS V14.00,2013-01-28 17:16:00,
2013-01-28 09:21:00,40.4,39.9,30.21,SW,219,1.0,6.0,98,0.04,,---,0.24,VWS V14.00,2013-01-28 17:21:00,
2013-01-28 09:26:00,40.5,40.0,30.21,SSW,198,2.0,6.0,98,0.05,,---,0.25,VWS V14.00,2013-01-28 17:26:00,
2013-01-28 09:31:00,40.5,40.0,30.21,South,179,1.0,6.0,98,0.05,,---,0.25,VWS V14.00,2013-01-28 17:31:00,
2013-01-28 09:36:00,40.6,40.1,30.21,South,178,0.0,4.0,98,0.03,,---,0.25,VWS V14.00,2013-01-28 17:36:00,
2013-01-28 09:41:00,40.6,40.1,30.22,SW,234,3.0,4.0,98,0.04,,---,0.26,VWS V14.00,2013-01-28 17:41:00,
2013-01-28 09:46:00,40.6,40.1,30.22,SSW,201,1.0,4.0,98,0.04,,---,0.26,VWS V14.00,2013-01-28 17:46:00,
2013-01-28 09:51:00,40.7,40.2,30.22,South,184,1.0,5.0,98,0.05,,---,0.27,VWS V14.00,2013-01-28 17:51:00,
2013-01-28 09:56:00,40.7,40.2,30.22,SSW,207,2.0,5.0,98,0.05,,---,0.27,VWS V14.00,2013-01-28 17:56:00,
2013-01-28 10:01:00,40.7,40.2,30.23,SSW,207,0.0,5.0,98,0.06,,---,0.28,VWS V14.00,2013-01-28 18:01:00,
2013-01-28 10:06:00,40.8,40.3,30.23,SSW,200,1.0,3.0,98,0.05,,---,0.28,VWS V14.00,2013-01-28 18:06:00,
2013-01-28 10:11:00,40.8,40.3,30.23,SW,225,2.0,5.0,98,0.06,,---,0.29,VWS V14.00,2013-01-28 18:11:00,
2013-01-28 10:16:00,40.9,40.4,30.23,SSW,196,1.0,5.0,98,0.06,,---,0.29,VWS V14.00,2013-01-28 18:16:00,
2013-01-28 10:21:00,40.9,40.4,30.24,SSW,201,2.0,5.0,98,0.06,,---,0.29,VWS V14.00,2013-01-28 18:21:00,
2013-01-28 10:26:00,40.9,40.4,30.24,SSW,213,1.0,5.0,98,0.07,,---,0.30,VWS V14.00,2013-01-28 18:26:00,
2013-01-28 10:31:00,41.0,40.5,30.24,SSW,201,1.0,5.0,98,0.07,,---,0.30,VWS V14.00,2013-01-28 18:31:00,
2013-01-28 10:36:00,41.0,40.5,30.24,South,184,2.0,6.0,98,0.05,,---,0.30,VWS V14.00,2013-01-28 18:36:00,
2013-01-28 10:41:00,41.0,40.5,30.24,South,184,1.0,6.0,98,0.06,,---,0.31,VWS V14.00,2013-01-28 18:41:00,
2013-01-28 10:46:00,41.1,40.6,30.24,SSW,205,3.0,6.0,98,0.06,,---,0.31,VWS V14.00,2013-01-28 18:46:00,
2013-01-28 10:51:00,41.2,40.7,30.24,South,178,1.0,6.0,98,0.06,,---,0.31,VWS V14.00,2013-01-28 18:51:00,
2013-01-28 10:56:00,41.2,40.7,30.24,SSW,196,2.0,6.0,98,0.06,,---,0.31,VWS V14.00,2013-01-28 18:56:00,
2013-01-28 11:01:00,41.2,40.7,30.24,SSW,199,5.0,7.0,98,0.06,,---,0.31,VWS V14.00,2013-01-28 19:01:00,
2013-01-28 11:06:00,41.2,40.4,30.24,South,189,3.0,8.0,97,0.04,,---,0.32,VWS V14.00,2013-01-28 19:06:00,
2013-01-28 11:11:00,41.3,40.5,30.23,SSW,192,2.0,8.0,97,0.04,,---,0.32,VWS V14.00,2013-01-28 19:11:00,
2013-01-28 11:16:00,41.3,40.5,30.24,SW,217,3.0,8.0,97,0.04,,---,0.32,VWS V14.00,2013-01-28 19:16:00,
2013-01-28 11:21:00,41.3,40.5,30.24,South,172,4.0,8.0,97,0.04,,---,0.32,VWS V14.00,2013-01-28 19:21:00,
2013-01-28 11:26:00,41.4,40.6,30.24,South,188,2.0,8.0,97,0.05,,---,0.33,VWS V14.00,2013-01-28 19:26:00,
2013-01-28 11:31:00,41.4,40.6,30.23,WSW,247,1.0,8.0,97,0.05,,---,0.33,VWS V14.00,2013-01-28 19:31:00,
2013-01-28 11:36:00,41.4,40.6,30.23,South,188,2.0,8.0,97,0.03,,---,0.33,VWS V14.00,2013-01-28 19:36:00,
2013-01-28 11:41:00,41.5,40.7,30.24,SW,235,3.0,8.0,97,0.03,,---,0.33,VWS V14.00,2013-01-28 19:41:00,
2013-01-28 11:47:00,41.5,40.7,30.24,South,191,2.0,8.0,97,0.03,,---,0.33,VWS V14.00,2013-01-28 19:47:00,
2013-01-28 11:52:00,41.5,40.7,30.23,South,178,6.0,8.0,97,0.04,,---,0.34,VWS V14.00,2013-01-28 19:52:00,
2013-01-28 11:57:00,41.5,40.7,30.23,South,182,3.0,8.0,97,0.04,,---,0.34,VWS V14.00,2013-01-28 19:57:00,
2013-01-28 12:02:00,41.6,40.8,30.23,SE,142,7.0,8.0,97,0.04,,---,0.34,VWS V14.00,2013-01-28 20:02:00,
2013-01-28 12:07:00,41.5,40.7,30.23,SW,228,3.0,7.0,97,0.03,,---,0.34,VWS V14.00,2013-01-28 20:07:00,
2013-01-28 12:12:00,41.6,40.8,30.22,SSE,161,6.0,8.0,97,0.04,,---,0.35,VWS V14.00,2013-01-28 20:12:00,
2013-01-28 12:17:00,41.6,40.8,30.22,South,181,3.0,8.0,97,0.04,,---,0.35,VWS V14.00,2013-01-28 20:17:00,
2013-01-28 12:22:00,41.6,40.8,30.22,SSE,162,5.0,8.0,97,0.04,,---,0.35,VWS V14.00,2013-01-28 20:22:00,
2013-01-28 12:27:00,41.6,40.8,30.22,South,186,2.0,8.0,97,0.04,,---,0.35,VWS V14.00,2013-01-28 20:27:00,
2013-01-28 12:32:00,41.7,40.9,30.22,SSW,205,3.0,8.0,97,0.04,,---,0.35,VWS V14.00,2013-01-28 20:32:00,
2013-01-28 12:37:00,41.8,41.0,30.22,SSW,209,2.0,8.0,97,0.02,,---,0.35,VWS V14.00,2013-01-28 20:37:00,
2013-01-28 12:42:00,41.8,41.0,30.22,SSW,204,3.0,8.0,97,0.02,,---,0.35,VWS V14.00,2013-01-28 20:42:00,
2013-01-28 12:47:00,41.9,41.1,30.22,WSW,250,6.0,8.0,97,0.02,,---,0.35,VWS V14.00,2013-01-28 20:47:00,
2013-01-28 12:52:00,41.9,41.1,30.22,SSW,193,4.0,10.0,97,0.02,,---,0.35,VWS V14.00,2013-01-28 20:52:00,
2013-01-28 12:57:00,41.9,41.1,30.22,SSW,201,3.0,10.0,97,0.02,,---,0.35,VWS V14.00,2013-01-28 20:57:00,
2013-01-28 13:02:00,41.9,41.1,30.23,SSE,158,1.0,10.0,97,0.02,,---,0.35,VWS V14.00,2013-01-28 21:02:00,
2013-01-28 13:07:00,42.0,41.2,30.22,SSW,210,4.0,6.0,97,0.01,,---,0.35,VWS V14.00,2013-01-28 21:07:00,
2013-01-28 13:12:00,42.0,41.2,30.21,SSE,165,5.0,8.0,97,0.01,,---,0.35,VWS V14.00,2013-01-28 21:12:00,
2013-01-28 13:17:00,42.0,41.2,30.21,South,187,4.0,10.0,97,0.01,,---,0.35,VWS V14.00,2013-01-28 21:17:00,
2013-01-28 13:22:00,42.1,41.3,30.22,SW,223,4.0,10.0,97,0.01,,---,0.35,VWS V14.00,2013-01-28 21:22:00,
2013-01-28 13:27:00,42.1,41.3,30.21,SSW,196,3.0,10.0,97,0.01,,---,0.35,VWS V14.00,2013-01-28 21:27:00,
2013-01-28 13:32:00,42.1,41.3,30.21,SSW,194,4.0,4.0,97,0.00,,---,0.35,VWS V14.00,2013-01-28 21:32:00,
2013-01-28 13:37:00,42.2,41.4,30.20,SW,220,5.0,8.0,97,0.00,,---,0.35,VWS V14.00,2013-01-28 21:37:00,
2013-01-28 13:42:00,42.2,41.4,30.20,SSW,195,2.0,10.0,97,0.00,,---,0.35,VWS V14.00,2013-01-28 21:42:00,
2013-01-28 13:47:00,42.3,41.5,30.21,SW,215,5.0,10.0,97,0.00,,---,0.35,VWS V14.00,2013-01-28 21:47:00,
2013-01-28 13:52:00,42.4,41.6,30.20,SSW,196,4.0,10.0,97,0.00,,---,0.35,VWS V14.00,2013-01-28 21:52:00,
2013-01-28 13:57:00,42.4,41.6,30.20,SW,221,4.0,10.0,97,0.00,,---,0.35,VWS V14.00,2013-01-28 21:57:00,
2013-01-28 14:02:00,42.5,41.7,30.20,SSW,202,4.0,8.0,97,0.00,,---,0.35,VWS V14.00,2013-01-28 22:02:00,
2013-01-28 14:07:00,42.4,41.6,30.20,SSW,207,4.0,8.0,97,0.00,,---,0.35,VWS V14.00,2013-01-28 22:07:00,
2013-01-28 14:12:00,42.5,41.4,30.20,SSW,194,5.0,8.0,96,0.00,,---,0.35,VWS V14.00,2013-01-28 22:12:00,
2013-01-28 14:17:00,42.5,41.4,30.21,SSE,168,5.0,9.0,96,0.00,,---,0.35,VWS V14.00,2013-01-28 22:17:00,
2013-01-28 14:22:00,42.5,41.4,30.21,South,176,6.0,9.0,96,0.00,,---,0.35,VWS V14.00,2013-01-28 22:22:00,
2013-01-28 14:27:00,42.5,41.4,30.20,SSE,167,8.0,12.0,96,0.00,,---,0.35,VWS V14.00,2013-01-28 22:27:00,
2013-01-28 14:32:00,42.5,41.4,30.20,South,182,5.0,8.0,96,0.00,,---,0.35,VWS V14.00,2013-01-28 22:32:00,
2013-01-28 14:37:00,42.6,41.5,30.21,SSE,159,6.0,8.0,96,0.00,,---,0.35,VWS V14.00,2013-01-28 22:37:00,
2013-01-28 14:42:00,42.6,41.5,30.21,South,182,5.0,8.0,96,0.00,,---,0.35,VWS V14.00,2013-01-28 22:42:00,
2013-01-28 14:48:00,42.7,41.6,30.21,SW,226,4.0,8.0,96,0.00,,---,0.35,VWS V14.00,2013-01-28 22:48:00,
2013-01-28 14:53:00,42.7,41.9,30.21,SSW,201,3.0,8.0,97,0.00,,---,0.35,VWS V14.00,2013-01-28 22:53:00,
2013-01-28 14:58:00,42.7,41.9,30.21,SSW,206,3.0,8.0,97,0.00,,---,0.35,VWS V14.00,2013-01-28 22:58:00,
2013-01-28 15:03:00,42.8,42.0,30.21,SSW,198,3.0,6.0,97,0.00,,---,0.35,VWS V14.00,2013-01-28 23:03:00,
2013-01-28 15:08:00,42.8,42.0,30.21,SSW,192,3.0,9.0,97,0.00,,---,0.35,VWS V14.00,2013-01-28 23:08:00,
2013-01-28 15:13:00,42.8,42.0,30.22,SSW,210,3.0,9.0,97,0.00,,---,0.35,VWS V14.00,2013-01-28 23:13:00,
2013-01-28 15:18:00,42.8,42.0,30.22,SSW,213,4.0,9.0,97,0.00,,---,0.35,VWS V14.00,2013-01-28 23:18:00,
2013-01-28 15:23:00,42.8,42.0,30.22,South,190,2.0,9.0,97,0.00,,---,0.35,VWS V14.00,2013-01-28 23:23:00,
2013-01-28 15:28:00,42.9,42.1,30.22,SSE,165,6.0,9.0,97,0.00,,---,0.35,VWS V14.00,2013-01-28 23:28:00,
2013-01-28 15:33:00,42.9,42.1,30.22,SW,216,4.0,5.0,97,0.00,,---,0.35,VWS V14.00,2013-01-28 23:33:00,
2013-01-28 15:38:00,43.0,42.2,30.22,South,185,2.0,7.0,97,0.00,,---,0.35,VWS V14.00,2013-01-28 23:38:00,
2013-01-28 15:43:00,43.0,42.2,30.22,South,169,2.0,7.0,97,0.00,,---,0.35,VWS V14.00,2013-01-28 23:43:00,
2013-01-28 15:48:00,43.0,42.2,30.22,SSW,195,2.0,7.0,97,0.00,,---,0.35,VWS V14.00,2013-01-28 23:48:00,
2013-01-28 15:53:00,43.0,42.2,30.23,South,182,2.0,7.0,97,0.00,,---,0.35,VWS V14.00,2013-01-28 23:53:00,
2013-01-28 15:58:00,43.1,42.3,30.23,SW,221,3.0,8.0,97,0.01,,---,0.36,VWS V14.00,2013-01-28 23:58:00,
2013-01-28 16:03:00,43.0,42.2,30.22,SSW,207,2.0,4.0,97,0.01,,---,0.36,VWS V14.00,2013-01-29 00:03:00,
2013-01-28 16:08:00,43.0,42.2,30.22,SW,226,4.0,4.0,97,0.01,,---,0.36,VWS V14.00,2013-01-29 00:08:00,
2013-01-28 16:13:00,43.0,42.2,30.22,South,171,4.0,6.0,97,0.01,,---,0.36,VWS V14.00,2013-01-29 00:13:00,
2013-01-28 16:18:00,43.0,42.2,30.22,SSW,209,3.0,7.0,97,0.01,,---,0.36,VWS V14.00,2013-01-29 00:18:00,
2013-01-28 16:23:00,43.0,42.2,30.23,South,184,3.0,7.0,97,0.01,,---,0.36,VWS V14.00,2013-01-29 00:23:00,
2013-01-28 16:28:00,43.0,42.2,30.22,South,189,4.0,7.0,97,0.01,,---,0.36,VWS V14.00,2013-01-29 00:28:00,
2013-01-28 16:33:00,43.0,42.2,30.22,South,188,3.0,4.0,97,0.01,,---,0.36,VWS V14.00,2013-01-29 00:33:00,
2013-01-28 16:38:00,43.1,42.3,30.22,South,175,1.0,7.0,97,0.01,,---,0.36,VWS V14.00,2013-01-29 00:38:00,
2013-01-28 16:43:00,43.1,42.3,30.22,SW,225,2.0,7.0,97,0.01,,---,0.36,VWS V14.00,2013-01-29 00:43:00,
2013-01-28 16:48:00,43.1,42.3,30.22,South,180,4.0,7.0,97,0.01,,---,0.36,VWS V14.00,2013-01-29 00:48:00,
2013-01-28 16:53:00,43.1,42.3,30.22,South,184,5.0,9.0,97,0.01,,---,0.36,VWS V14.00,2013-01-29 00:53:00,
2013-01-28 16:58:00,43.1,42.3,30.22,SSW,196,4.0,9.0,97,0.01,,---,0.36,VWS V14.00,2013-01-29 00:58:00,
2013-01-28 17:03:00,43.0,42.2,30.23,SW,218,3.0,5.0,97,0.00,,---,0.36,VWS V14.00,2013-01-29 01:03:00,
2013-01-28 17:08:00,43.0,42.2,30.23,SW,236,3.0,10.0,97,0.00,,---,0.36,VWS V14.00,2013-01-29 01:08:00,
2013-01-28 17:13:00,43.0,42.2,30.22,SSE,165,7.0,10.0,97,0.00,,---,0.36,VWS V14.00,2013-01-29 01:13:00,
2013-01-28 17:18:00,43.0,42.2,30.22,SW,222,3.0,10.0,97,0.00,,---,0.36,VWS V14.00,2013-01-29 01:18:00,
2013-01-28 17:23:00,43.0,42.2,30.22,SSW,193,3.0,10.0,97,0.00,,---,0.36,VWS V14.00,2013-01-29 01:23:00,
2013-01-28 17:28:00,43.0,42.2,30.23,SSW,206,3.0,10.0,97,0.00,,---,0.36,VWS V14.00,2013-01-29 01:28:00,
2013-01-28 17:33:00,43.0,42.2,30.23,South,190,3.0,6.0,97,0.00,,---,0.36,VWS V14.00,2013-01-29 01:33:00,
2013-01-28 17:38:00,42.9,42.1,30.23,South,186,2.0,7.0,97,0.00,,---,0.36,VWS V14.00,2013-01-29 01:38:00,
2013-01-28 17:43:00,43.0,42.2,30.23,SW,215,2.0,10.0,97,0.00,,---,0.36,VWS V14.00,2013-01-29 01:43:00,
2013-01-28 17:48:00,43.0,42.2,30.23,SSW,198,4.0,10.0,97,0.00,,---,0.36,VWS V14.00,2013-01-29 01:48:00,
2013-01-28 17:53:00,43.0,42.2,30.23,South,173,2.0,10.0,97,0.00,,---,0.36,VWS V14.00,2013-01-29 01:53:00,
2013-01-28 17:58:00,43.0,42.2,30.23,SSW,195,2.0,10.0,97,0.00,,---,0.36,VWS V14.00,2013-01-29 01:58:00,
2013-01-28 18:03:00,43.0,42.2,30.24,South,184,2.0,4.0,97,0.00,,---,0.36,VWS V14.00,2013-01-29 02:03:00,
2013-01-28 18:08:00,43.0,42.2,30.24,SSW,211,2.0,7.0,97,0.00,,---,0.36,VWS V14.00,2013-01-29 02:08:00,
2013-01-28 18:14:00,43.0,42.2,30.24,South,178,2.0,7.0,97,0.00,,---,0.36,VWS V14.00,2013-01-29 02:14:00,
2013-01-28 18:19:00,43.0,42.2,30.24,SSW,206,5.0,8.0,97,0.00,,---,0.36,VWS V14.00,2013-01-29 02:19:00,
2013-01-28 18:24:00,43.0,42.2,30.23,SSW,199,2.0,8.0,97,0.00,,---,0.36,VWS V14.00,2013-01-29 02:24:00,
2013-01-28 18:28:00,43.0,42.2,30.23,South,171,5.0,8.0,97,0.00,,---,0.36,VWS V14.00,2013-01-29 02:28:00,
2013-01-28 18:33:00,43.0,42.2,30.22,SSE,167,2.0,9.0,97,0.00,,---,0.36,VWS V14.00,2013-01-29 02:33:00,
2013-01-28 18:39:00,43.0,42.2,30.22,SSE,166,4.0,9.0,97,0.00,,---,0.36,VWS V14.00,2013-01-29 02:39:00,
2013-01-28 18:44:00,43.0,41.9,30.22,SSW,192,2.0,9.0,96,0.00,,---,0.36,VWS V14.00,2013-01-29 02:44:00,
2013-01-28 18:49:00,43.0,41.9,30.23,SSW,192,3.0,9.0,96,0.00,,---,0.36,VWS V14.00,2013-01-29 02:49:00,
2013-01-28 18:54:00,43.0,42.2,30.23,SSW,213,4.0,9.0,97,0.00,,---,0.36,VWS V14.00,2013-01-29 02:54:00,
2013-01-28 18:59:00,43.0,42.2,30.23,SSW,192,2.0,9.0,97,0.00,,---,0.36,VWS V14.00,2013-01-29 02:59:00,
2013-01-28 19:04:00,43.1,42.3,30.23,South,184,4.0,5.0,97,0.00,,---,0.36,VWS V14.00,2013-01-29 03:04:00,
2013-01-28 19:09:00,43.1,42.0,30.23,SW,222,4.0,9.0,96,0.00,,---,0.36,VWS V14.00,2013-01-29 03:09:00,
2013-01-28 19:14:00,43.1,42.0,30.23,SSW,210,5.0,10.0,96,0.00,,---,0.36,VWS V14.00,2013-01-29 03:14:00,
2013-01-28 19:19:00,43.1,42.0,30.23,SSW,207,6.0,10.0,96,0.00,,---,0.36,VWS V14.00,2013-01-29 03:19:00,
2013-01-28 19:24:00,43.1,42.0,30.23,SSW,195,4.0,10.0,96,0.00,,---,0.36,VWS V14.00,2013-01-29 03:24:00,
2013-01-28 19:29:00,43.1,42.0,30.23,South,191,4.0,10.0,96,0.00,,---,0.36,VWS V14.00,2013-01-29 03:29:00,
2013-01-28 19:34:00,43.1,42.0,30.23,SW,227,4.0,6.0,96,0.00,,---,0.36,VWS V14.00,2013-01-29 03:34:00,
2013-01-28 19:39:00,43.1,42.0,30.23,SSW,192,3.0,7.0,96,0.00,,---,0.36,VWS V14.00,2013-01-29 03:39:00,
2013-01-28 19:44:00,43.1,42.0,30.23,South,179,7.0,10.0,96,0.00,,---,0.36,VWS V14.00,2013-01-29 03:44:00,
2013-01-28 19:49:00,43.2,42.1,30.23,South,180,3.0,10.0,96,0.00,,---,0.36,VWS V14.00,2013-01-29 03:49:00,
2013-01-28 19:54:00,43.1,42.0,30.23,SSW,201,5.0,10.0,96,0.00,,---,0.36,VWS V14.00,2013-01-29 03:54:00,
2013-01-28 19:59:00,43.1,42.0,30.24,SW,229,6.0,10.0,96,0.00,,---,0.36,VWS V14.00,2013-01-29 03:59:00,
2013-01-28 20:04:00,43.1,42.0,30.24,South,188,4.0,5.0,96,0.01,,---,0.37,VWS V14.00,2013-01-29 04:04:00,
2013-01-28 20:09:00,43.1,42.0,30.24,SSW,208,4.0,6.0,96,0.01,,---,0.37,VWS V14.00,2013-01-29 04:09:00,
2013-01-28 20:14:00,43.1,42.3,30.24,SSW,210,1.0,6.0,97,0.01,,---,0.37,VWS V14.00,2013-01-29 04:14:00,
2013-01-28 20:19:00,43.0,42.2,30.24,SSE,158,5.0,8.0,97,0.02,,---,0.38,VWS V14.00,2013-01-29 04:19:00,
2013-01-28 20:24:00,43.0,42.2,30.24,SSE,167,2.0,8.0,97,0.02,,---,0.38,VWS V14.00,2013-01-29 04:24:00,
2013-01-28 20:29:00,43.0,42.2,30.24,SSE,161,4.0,8.0,97,0.03,,---,0.39,VWS V14.00,2013-01-29 04:29:00,
2013-01-28 20:34:00,42.9,42.1,30.24,SSW,192,4.0,5.0,97,0.03,,---,0.39,VWS V14.00,2013-01-29 04:34:00,
2013-01-28 20:39:00,42.9,42.1,30.24,SW,226,4.0,5.0,97,0.03,,---,0.39,VWS V14.00,2013-01-29 04:39:00,
2013-01-28 20:44:00,42.9,42.1,30.24,South,171,2.0,8.0,97,0.03,,---,0.39,VWS V14.00,2013-01-29 04:44:00,
2013-01-28 20:49:00,42.9,42.1,30.24,SW,217,3.0,8.0,97,0.03,,---,0.39,VWS V14.00,2013-01-29 04:49:00,
2013-01-28 20:54:00,42.9,42.1,30.24,SSW,200,5.0,8.0,97,0.04,,---,0.40,VWS V14.00,2013-01-29 04:54:00,
2013-01-28 20:59:00,42.9,42.1,30.24,SSW,205,3.0,8.0,97,0.04,,---,0.40,VWS V14.00,2013-01-29 04:59:00,
2013-01-28 21:00:00,42.8,42.0,30.24,SW,220,3.0,8.0,97,0.05,,---,0.41,VWS V14.00,2013-01-29 05:00:00,
2013-01-28 21:01:00,42.8,42.0,30.24,SE,138,5.0,8.0,97,0.05,,---,0.41,VWS V14.00,2013-01-29 05:01:00,
2013-01-28 21:02:00,42.8,42.0,30.24,SW,225,5.0,8.0,97,0.05,,---,0.41,VWS V14.00,2013-01-29 05:02:00,
2013-01-28 21:03:00,42.8,42.0,30.24,SW,215,4.0,7.0,97,0.04,,---,0.41,VWS V14.00,2013-01-29 05:03:00,
2013-01-28 21:08:00,42.8,42.0,30.24,SSW,200,2.0,7.0,97,0.04,,---,0.41,VWS V14.00,2013-01-29 05:08:00,
2013-01-28 21:13:00,42.8,42.0,30.24,SSW,201,5.0,10.0,97,0.05,,---,0.42,VWS V14.00,2013-01-29 05:13:00,
2013-01-28 21:18:00,42.8,42.0,30.24,SSW,209,2.0,10.0,97,0.05,,---,0.42,VWS V14.00,2013-01-29 05:18:00,
2013-01-28 21:23:00,42.8,42.0,30.24,SW,234,2.0,10.0,97,0.06,,---,0.43,VWS V14.00,2013-01-29 05:23:00,
2013-01-28 21:28:00,42.8,42.0,30.24,SSW,204,2.0,10.0,97,0.06,,---,0.43,VWS V14.00,2013-01-29 05:28:00,
2013-01-28 21:33:00,42.8,42.0,30.24,SSW,205,2.0,4.0,97,0.04,,---,0.43,VWS V14.00,2013-01-29 05:33:00,
2013-01-28 21:38:00,42.7,41.9,30.24,South,182,1.0,7.0,97,0.04,,---,0.43,VWS V14.00,2013-01-29 05:38:00,
2013-01-28 21:43:00,42.7,41.9,30.24,South,178,2.0,7.0,97,0.05,,---,0.44,VWS V14.00,2013-01-29 05:43:00,
2013-01-28 21:48:00,42.7,41.9,30.24,SSE,157,2.0,7.0,97,0.05,,---,0.44,VWS V14.00,2013-01-29 05:48:00,
2013-01-28 21:53:00,42.7,41.9,30.24,SSW,209,5.0,7.0,97,0.05,,---,0.44,VWS V14.00,2013-01-29 05:53:00,
2013-01-28 21:58:00,42.7,41.9,30.25,SW,221,2.0,7.0,97,0.06,,---,0.45,VWS V14.00,2013-01-29 05:58:00,
2013-01-28 22:03:00,42.7,41.9,30.25,South,186,2.0,4.0,97,0.04,,---,0.45,VWS V14.00,2013-01-29 06:03:00,
2013-01-28 22:08:00,42.7,41.9,30.24,SSE,148,2.0,6.0,97,0.05,,---,0.46,VWS V14.00,2013-01-29 06:08:00,
2013-01-28 22:13:00,42.7,41.9,30.25,SSW,193,3.0,6.0,97,0.06,,---,0.47,VWS V14.00,2013-01-29 06:13:00,
2013-01-28 22:18:00,42.7,41.9,30.25,South,184,2.0,6.0,97,0.06,,---,0.47,VWS V14.00,2013-01-29 06:18:00,
2013-01-28 22:23:00,42.7,41.9,30.25,SSW,212,1.0,6.0,97,0.07,,---,0.48,VWS V14.00,2013-01-29 06:23:00,
2013-01-28 22:28:00,42.7,41.9,30.25,SSW,212,2.0,6.0,97,0.07,,---,0.48,VWS V14.00,2013-01-29 06:28:00,
2013-01-28 22:33:00,42.7,41.9,30.24,SSW,213,2.0,4.0,97,0.06,,---,0.49,VWS V14.00,2013-01-29 06:33:00,
2013-01-28 22:38:00,42.7,41.9,30.25,SSW,201,1.0,4.0,97,0.07,,---,0.50,VWS V14.00,2013-01-29 06:38:00,
2013-01-28 22:43:00,42.7,41.9,30.25,SW,218,2.0,5.0,97,0.08,,---,0.51,VWS V14.00,2013-01-29 06:43:00,
2013-01-28 22:48:00,42.7,41.9,30.25,South,179,2.0,6.0,97,0.09,,---,0.52,VWS V14.00,2013-01-29 06:48:00,
2013-01-28 22:53:00,42.7,41.9,30.25,South,177,2.0,7.0,97,0.09,,---,0.52,VWS V14.00,2013-01-29 06:53:00,
2013-01-28 22:58:00,42.7,41.9,30.25,SSW,211,2.0,7.0,97,0.09,,---,0.52,VWS V14.00,2013-01-29 06:58:00,
2013-01-28 23:03:00,42.7,41.9,30.25,SW,214,2.0,6.0,97,0.08,,---,0.53,VWS V14.00,2013-01-29 07:03:00,
2013-01-28 23:08:00,42.7,41.9,30.25,SSW,192,1.0,6.0,97,0.08,,---,0.53,VWS V14.00,2013-01-29 07:08:00,
2013-01-28 23:13:00,42.7,41.9,30.25,South,188,1.0,6.0,97,0.08,,---,0.53,VWS V14.00,2013-01-29 07:13:00,
2013-01-28 23:18:00,42.7,41.9,30.25,South,175,1.0,6.0,97,0.08,,---,0.53,VWS V14.00,2013-01-29 07:18:00,
2013-01-28 23:23:00,42.7,41.9,30.25,SSW,208,1.0,6.0,97,0.09,,---,0.54,VWS V14.00,2013-01-29 07:23:00,
2013-01-28 23:29:00,42.6,41.8,30.25,South,181,1.0,6.0,97,0.10,,---,0.55,VWS V14.00,2013-01-29 07:29:00,
2013-01-28 23:34:00,42.7,41.9,30.26,SSW,207,1.0,6.0,97,0.07,,---,0.56,VWS V14.00,2013-01-29 07:34:00,
2013-01-28 23:38:00,42.7,41.9,30.26,SSE,164,2.0,6.0,97,0.07,,---,0.56,VWS V14.00,2013-01-29 07:38:00,
2013-01-28 23:44:00,42.6,42.1,30.26,SE,142,0.0,6.0,98,0.08,,---,0.57,VWS V14.00,2013-01-29 07:44:00,
2013-01-28 23:49:00,42.7,42.2,30.26,SSW,207,0.0,6.0,98,0.08,,---,0.57,VWS V14.00,2013-01-29 07:49:00,
2013-01-28 23:54:00,42.6,42.1,30.26,South,169,1.0,6.0,98,0.09,,---,0.58,VWS V14.00,2013-01-29 07:54:00,
2013-01-28 23:59:00,42.5,42.0,30.26,South,186,1.0,6.0,98,0.10,,---,0.59,VWS V14.00,2013-01-29 07:59:00,